Hourly Data Report for June 11, 2017

TORONTO CITY
ONTARIO

43°40'00.000" N
79°24'00.000" W
112.50 m
6158355
71508
XTO

Download Data

Hourly Data (June 2017)
Hourly Data Report for June 11, 2017
TIME
LST
Temp Definition
°C
Dew Point Definition
°C
Rel Hum Definition
%
Precip. Amount Definition
mm

Wind Dir Definition
10's deg

Wind Spd Definition
km/h
Visibility Definition
km
Stn Press Definition
kPa
Hmdx Definition


Wind Chill Definition


Weather Definition


00:00 22.1 13.1 57 0.0 LegendMM LegendMM   99.77 25   LegendNANA
01:00 20.8 14.0 65 0.0 LegendMM LegendMM   99.80     LegendNANA
02:00 20.7 13.7 64 0.0 LegendMM LegendMM   99.85     LegendNANA
03:00 19.9 13.5 67 0.0 LegendMM LegendMM   99.86     LegendNANA
04:00 19.6 12.6 64 0.0 LegendMM LegendMM   99.87     LegendNANA
05:00 19.7 12.6 64 0.0 LegendMM LegendMM   99.91     LegendNANA
06:00 19.3 12.9 66 0.0 LegendMM LegendMM   99.96     LegendNANA
07:00 20.6 13.6 64 0.0 LegendMM LegendMM   99.98     LegendNANA
08:00 22.9 14.6 59 0.0 LegendMM LegendMM   99.99 27   LegendNANA
09:00 24.3 14.1 53 0.0 LegendMM LegendMM   100.01 28   LegendNANA
10:00 25.9 14.8 50 0.0 LegendMM LegendMM   100.00 30   LegendNANA
11:00 28.5 16.7 49 0.0 LegendMM LegendMM   100.03 34   LegendNANA
12:00 27.7 16.5 51 0.0 LegendMM LegendMM   100.06 33   LegendNANA
13:00 28.1 15.6 47 0.0 LegendMM LegendMM   100.07 32   LegendNANA
14:00 28.5 16.3 48 0.0 LegendMM LegendMM   100.03 33   LegendNANA
15:00 28.7 16.6 48 0.0 LegendMM LegendMM   100.01 34   LegendNANA
16:00 28.7 16.5 48 0.0 LegendMM LegendMM   99.99 34   LegendNANA
17:00 28.2 15.8 47 0.0 LegendMM LegendMM   99.99 33   LegendNANA
18:00 26.3 14.8 49 0.0 LegendMM LegendMM   99.99 30   LegendNANA
19:00 26.0 14.2 48 0.0 LegendMM LegendMM   100.01 29   LegendNANA
20:00 26.3 12.9 44 0.0 LegendMM LegendMM   99.94 29   LegendNANA
21:00 26.9 12.4 41 0.0 LegendMM LegendMM   100.01 29   LegendNANA
22:00 25.2 12.5 45 0.0 LegendMM LegendMM   100.00 28   LegendNANA
23:00 23.3 12.9 52 0.0 LegendMM LegendMM   99.97 26   LegendNANA

Notes on Data Quality.

Legend

  • E = Estimated
  • M = Missing
  • NA = Not Available*
  • [empty] = Indicates an unobserved value
Date modified: